Location: Silverdale
(47.6506°N, 122.6941°W)
Time: 10:48:07
(UTC+00:00)

Tiros 1 despin weight - Pass Details

Date: 03 October 2022
Orbit: 590 x 637 km, 48.2° (Epoch: 02 December)

Event Time Altitude Azimuth Distance (km) Brightness Sun altitude
Rises 02:22:38 0° 264° (W) 2,861 ? -6.7°
Reaches altitude 10° 02:24:55 10° 264° (W) 1,966 ? -7.1°
Maximum altitude 02:29:27 86° 352° (N) 626 ? -7.9°
Enters shadow 02:33:57 11° 83° (E) 1,954 ? -8.6°
